Flag for Germany Weather past 2 weeks in Naumburg (Saale), Saxony-Anhalt, Germany

54 °F


Feels Like: 54 °F
Forecast: 40 / 51 °F
Wind: 2 mph from Northwest

Location: Gera-Leumnitz

Current Time: Oct 9, 2015 at 7:44:01 AM

Latest Report: Oct 9, 2015 at 7:00 AM

Visibility: 2 mi

Pressure: 30.11 "Hg

Humidity: 99%

Dew point: 53 °F

Location of Naumburg (Saale)Location

Historic Weather in Naumburg (Saale) — Graph


Naumburg (Saale) temperature yesterday

Maximum temperature yesterday: 59 °F (at 2:00 PM)
Minimum temperature yesterday: 54 °F (at 9:00 AM)
Average temperature yesterday: 56 °F

Past Weeks' High & Low Weather Summary

High69 °F (Oct 3, 3:00 PM)100% (Sep 28, 4:00 AM)30.64 "Hg (Sep 28, 4:00 AM)
Low32 °F (Oct 2, 7:00 AM)41% (Sep 30, 3:00 PM)29.74 "Hg (Oct 6, 5:00 PM)
Average53 °F78%30.22 "Hg
* Reported Sep 24 6:00 AM — Oct 9 6:00 AM, Naumburg (Saale), Weather by CustomWeather, © 2015

Note: Actual official high and low records may vary slightly from our data, if they occured in-between our weather recording intervals... More about our weather records


Naumburg (Saale) weather history for previous 24 hours

Time TempWeatherWind HumidityBarometerVisibility
6:00 AM
Fri, Oct 9
54 °FFog.2 mph99%30.12 "Hg2 mi
5:00 AM54 °FFog.2 mph98%30.12 "Hg2 mi
4:00 AM54 °FFog.2 mph99%30.13 "Hg2 mi
3:00 AM54 °FFog.2 mph99%30.14 "Hg3 mi
2:00 AM54 °FLow clouds.2 mph99%30.13 "Hg4 mi
1:00 AM54 °FDrizzle. Low clouds.2 mph99%30.13 "Hg2 mi
11:00 PM
Thu, Oct 8
54 °FLow clouds.2 mph98%30.14 "Hg4 mi
10:00 PM54 °FDrizzle. Low clouds.3 mph97%30.13 "Hg6 mi
9:00 PM55 °FLow clouds.3 mph94%30.13 "Hg12 mi
8:00 PM56 °FDrizzle. Low clouds.2 mph92%30.12 "Hg19 mi
7:00 PM56 °FOvercast.3 mph87%30.11 "Hg22 mi
6:00 PM57 °FOvercast.2 mph84%30.10 "Hg19 mi
5:00 PM58 °FOvercast.3 mph83%30.09 "Hg22 mi
4:00 PM58 °FLight rain. Overcast.2 mph85%30.09 "Hg22 mi
3:00 PM58 °FOvercast.5 mph81%30.08 "Hg22 mi
2:00 PM59 °FOvercast.5 mph80%30.08 "Hg22 mi
1:00 PM58 °FOvercast.5 mph80%30.08 "Hg22 mi
12:00 PM58 °FLow clouds.5 mph89%30.07 "Hg16 mi
11:00 AM56 °FLow clouds.5 mph94%30.07 "Hg14 mi
10:00 AM54 °FLight rain. Low clouds.3 mph96%30.06 "Hg11 mi
9:00 AM54 °FRain. Low clouds.5 mph99%30.05 "Hg3 mi
8:00 AM54 °FDrizzle. Low clouds.5 mph99%30.03 "Hg4 mi
7:00 AM54 °FDrizzle. Low clouds.5 mph97%30.02 "Hg8 mi
Weather by CustomWeather, © 2015

See weather overviewHow to use our weather pages